This demonstration page uses our WeatherBlox Daily Observations layout. Learn more.

Left ArrowRight Arrow

Hourly Observations for July 31, 2016

Temp ( °F °C ) Dew Point ( °F °C ) Humidity (%) Winds ( mph kmh ) Pressure ( in mb ) Visibility ( mi km ) Precip ( " mm )
12:15 am 00:15 Mostly Cloudy 72 22 72 22 100 100 S 3 6 30.00 1016 10 16 N/A
12:35 am 00:35 Partly Cloudy 72 22 72 22 100 100 SSW 6 9 30.00 1016 10 16 N/A
12:55 am 00:55 Mostly Cloudy 72 22 72 22 100 100 S 3 6 30.00 1016 10 16 N/A
1:15 am 01:15 Cloudy 72 22 72 22 100 100 S 5 7 29.97 1015 10 16 N/A
1:35 am 01:35 Cloudy 72 22 72 22 100 100 WNW 6 9 29.97 1015 10 16 N/A
1:55 am 01:55 Cloudy 72 22 72 22 100 100 S 6 9 29.97 1015 10 16 N/A
2:15 am 02:15 Cloudy 72 22 72 22 100 100 SSW 6 9 29.97 1015 7 11 N/A
2:35 am 02:35 Cloudy with Mist and Fog 72 22 72 22 100 100 NNE 3 6 29.97 1015 5 8 N/A
2:55 am 02:55 Cloudy with Mist and Fog 72 22 72 22 100 100 N N/A 29.97 1015 5 8 N/A
3:15 am 03:15 Cloudy with Mist and Fog 72 22 72 22 100 100 NE 3 6 29.97 1015 5 8 N/A
3:35 am 03:35 Cloudy with Mist and Fog 72 22 72 22 100 100 NNE 3 6 29.97 1015 5 8 N/A
3:55 am 03:55 Cloudy with Mist and Fog 72 22 72 22 100 100 ENE 3 6 29.97 1015 2 3 N/A
4:15 am 04:15 Cloudy with Mist and Fog 72 22 72 22 100 100 E 3 6 29.97 1015 4 6 N/A
4:35 am 04:35 Cloudy with Mist and Fog 72 22 72 22 100 100 NW 5 7 29.97 1015 5 8 N/A
4:55 am 04:55 Cloudy 72 22 72 22 100 100 NW 5 7 29.97 1015 7 11 N/A
5:15 am 05:15 Cloudy with Mist and Fog 72 22 72 22 100 100 N 5 7 29.97 1015 5 8 N/A
5:35 am 05:35 Cloudy 72 22 72 22 100 100 NW 5 7 30.00 1016 7 11 N/A
5:55 am 05:55 Cloudy 72 22 72 22 100 100 NW 7 11 30.00 1016 7 11 N/A
6:15 am 06:15 Cloudy with Mist and Fog 72 22 72 22 100 100 NW 6 9 30.00 1016 5 8 N/A
6:35 am 06:35 Cloudy with Mist and Fog 72 22 72 22 100 100 NNW 5 7 30.00 1016 3 4 N/A
6:55 am 06:55 Cloudy with Mist and Fog 72 22 72 22 100 100 WNW 3 6 30.03 1017 3 4 N/A
7:15 am 07:15 Cloudy with Mist and Fog 72 22 72 22 100 100 SSW 6 9 30.03 1017 4 6 N/A
7:35 am 07:35 Cloudy with Mist and Fog 72 22 72 22 100 100 ESE 3 6 30.03 1017 5 8 N/A
7:55 am 07:55 Cloudy 73 23 73 23 100 100 N N/A 30.03 1017 7 11 N/A
8:15 am 08:15 Cloudy 73 23 73 23 100 100 WSW 3 6 30.03 1017 10 16 N/A
8:35 am 08:35 Cloudy 73 23 73 23 100 100 WNW 6 9 30.03 1017 10 16 N/A
8:55 am 08:55 Cloudy 73 23 73 23 100 100 WNW 3 6 30.03 1017 10 16 N/A
9:15 am 09:15 Cloudy 73 23 73 23 100 100 WNW 5 7 30.03 1017 10 16 N/A
9:35 am 09:35 Cloudy 75 24 73 23 94 94 N N/A 30.03 1017 10 16 N/A
9:55 am 09:55 Cloudy 75 24 73 23 94 94 WNW 5 7 30.03 1017 10 16 N/A
10:15 am 10:15 Cloudy 79 26 75 24 89 89 WNW 8 13 30.03 1017 10 16 N/A
10:35 am 10:35 Cloudy 79 26 75 24 89 89 N N/A 30.03 1017 10 16 N/A
10:55 am 10:55 Cloudy 81 27 77 25 89 89 WNW 8 13 30.06 1018 10 16 N/A
11:15 am 11:15 Mostly Cloudy 82 28 77 25 84 84 SSW 7 11 30.06 1018 10 16 N/A
11:35 am 11:35 Cloudy 82 28 77 25 84 84 SW 6 9 30.06 1018 10 16 N/A
11:55 am 11:55 Mostly Cloudy 82 28 77 25 84 84 SSW 9 15 30.03 1017 10 16 N/A
12:15 pm 12:15 Partly Cloudy 86 30 77 25 75 75 WSW 6 9 30.03 1017 10 16 N/A
12:35 pm 12:35 Sunny 86 30 77 25 75 75 W 7 11 30.03 1017 10 16 N/A
12:55 pm 12:55 Partly Cloudy 88 31 77 25 70 70 W 7 11 30.00 1016 10 16 N/A
1:15 pm 13:15 Partly Cloudy 88 31 77 25 70 70 SW 6 9 30.00 1016 10 16 N/A
1:35 pm 13:35 Partly Cloudy 88 31 77 25 70 70 W 6 9 30.00 1016 10 16 N/A
1:55 pm 13:55 Partly Cloudy 88 31 73 23 62 62 SW 8 13 29.97 1015 10 16 N/A
2:15 pm 14:15 Sunny 90 32 75 24 63 63 SSW 3 6 29.97 1015 10 16 N/A
2:35 pm 14:35 Sunny 90 32 75 24 63 63 W 9 15 29.97 1015 10 16 N/A
2:55 pm 14:55 Sunny 91 33 75 24 59 59 S 6 9 29.97 1015 10 16 N/A
3:15 pm 15:15 Sunny 91 33 73 23 56 56 W 3 6 29.97 1015 10 16 N/A
3:35 pm 15:35 Sunny 91 33 73 23 56 56 SW 5 7 29.97 1015 10 16 N/A
3:55 pm 15:55 Sunny 91 33 73 23 56 56 N N/A 29.94 1014 10 16 N/A
4:15 pm 16:15 Mostly Cloudy with Thunderstorms 79 26 72 22 79 79 N 17 28 30.00 1016 10 16 N/A
4:35 pm 16:35 Cloudy with Strong Thunderstorms 73 23 73 23 100 100 N 15 24 30.00 1016 2 2 N/A
4:55 pm 16:55 Cloudy with Heavy Rain 75 24 73 23 94 94 NW 8 13 30.00 1016 3 5 N/A
5:15 pm 17:15 Cloudy with Rain 75 24 75 24 100 100 W 7 11 29.97 1015 10 16 N/A
5:35 pm 17:35 Cloudy with Light Rain 77 25 75 24 94 94 WNW 8 13 29.97 1015 10 16 N/A
5:55 pm 17:55 Cloudy 77 25 75 24 94 94 SSW 10 17 29.97 1015 10 16 N/A
6:15 pm 18:15 Partly Cloudy 77 25 77 25 100 100 ESE 5 7 29.97 1015 10 16 N/A
6:35 pm 18:35 Sunny 79 26 77 25 94 94 SSE 5 7 30.00 1016 10 16 N/A
6:55 pm 18:55 Sunny 79 26 77 25 94 94 N N/A 30.00 1016 10 16 N/A
7:15 pm 19:15 Partly Cloudy 79 26 77 25 94 94 WSW 5 7 30.00 1016 10 16 N/A
7:35 pm 19:35 Partly Cloudy 79 26 77 25 94 94 SW 5 7 30.00 1016 10 16 N/A
8:15 pm 20:15 Sunny 77 25 77 25 100 100 WSW 5 7 30.00 1016 10 16 N/A
8:35 pm 20:35 Partly Cloudy 77 25 77 25 100 100 NNW 3 6 30.00 1016 10 16 N/A
8:55 pm 20:55 Partly Cloudy 77 25 77 25 100 100 N N/A 30.00 1016 10 16 N/A
9:15 pm 21:15 Partly Cloudy 77 25 77 25 100 100 WNW 6 9 30.00 1016 10 16 N/A
9:35 pm 21:35 Clear 77 25 77 25 100 100 W 6 9 30.03 1017 10 16 N/A
9:55 pm 21:55 Clear 77 25 77 25 100 100 N N/A 30.03 1017 10 16 N/A
10:15 pm 22:15 Clear 77 25 77 25 100 100 N N/A 30.03 1017 10 16 N/A
10:35 pm 22:35 Clear 75 24 75 24 100 100 SSW 9 15 30.03 1017 10 16 N/A
10:55 pm 22:55 Clear 75 24 75 24 100 100 SSW 12 19 30.03 1017 10 16 N/A
11:15 pm 23:15 Mostly Cloudy 75 24 75 24 100 100 N N/A 30.03 1017 7 11 N/A
11:35 pm 23:35 Partly Cloudy 75 24 75 24 100 100 W 5 7 30.03 1017 10 16 N/A
11:55 pm 23:55 Clear 75 24 75 24 100 100 WSW 5 7 30.03 1017 10 16 N/A

Powered by AerisWeather